QPF
0.00 0.00 0.00 0.00 0.00 0.00 0.00 0.00 0.00 0.00 0.00 0.00 0.00 0.00 0.00 0.00 0.00 0.00 0.00 0.00 0.00 0.00 0.00 0.00 0.00 0.00 0.00 0.00 0.00 0.00 0.00 0.00 0.00 0.00 0.00 0.00 0.00 0.00 0.00 0.00 0.00 0.00 0.00
0.00 0.00 0.00 0.00 0.00 0.00 0.00 0.00 0.00 0.00 0.00 0.00 0.00 0.00 0.00 0.00 0.00 0.00 0.00 0.00 0.00 0.00 0.00 0.00 0.00 0.00 0.00 0.00 0.00 0.00 0.00 0.00 0.00 0.00 0.00 0.00 0.00 0.00 0.00 0.00 0.00 0.00 0.00
0.01 0.00 0.00 0.00 0.00 0.00 0.00 0.00 0.00 0.00 0.00 0.00 0.00 0.00 0.00 0.00 0.00 0.00 0.00 0.00 0.00 0.00 0.00 0.00 0.00 0.00 0.00 0.00 0.00 0.00 0.00 0.00 0.00 0.00 0.00 0.00 0.00 0.00 0.00 0.00 0.00 0.00 0.00
0.01 0.01 0.01 0.00 0.00 0.00 0.00 0.00 0.00 0.00 0.00 0.00 0.00 0.00 0.00 0.00 0.00 0.00 0.00 0.00 0.00 0.00 0.00 0.00 0.00 0.00 0.00 0.00 0.00 0.00 0.00 0.00 0.00 0.00 0.00 0.00 0.00 0.00 0.00 0.00 0.00 0.00 0.00
0.01 0.01 0.00 0.00 0.01 0.01 0.01 0.01 0.01 0.01 0.00 0.00 0.00 0.00 0.00 0.00 0.00 0.00 0.00 0.00 0.00 0.00 0.00 0.00 0.00 0.00 0.00 0.00 0.00 0.00 0.00 0.00 0.00 0.00 0.00 0.00 0.00 0.00 0.00 0.00 0.00 0.00 0.00
0.00 0.00 0.00 0.01 0.00 0.01 0.01 0.01 0.01 0.00 0.00 0.00 0.00 0.00 0.00 0.00 0.00 0.00 0.00 0.00 0.00 0.00 0.00 0.00 0.00 0.00 0.00 0.00 0.00 0.00 0.00 0.00 0.00 0.00 0.00 0.00 0.00 0.00 0.00 0.00 0.00 0.00 0.00
0.00 0.00 0.00 0.01 0.01 0.01 0.01 0.01 0.01 0.01 0.01 0.00 0.00 0.00 0.00 0.00 0.00 0.00 0.00 0.00 0.00 0.00 0.00 0.00 0.00 0.00 0.00 0.00 0.00 0.00 0.00 0.00 0.00 0.00 0.00 0.00 0.00 0.00 0.00 0.00 0.00 0.00 0.00
0.00 0.00 0.00 0.00 0.00 0.00 0.00 0.00 0.00 0.00 0.00 0.00 0.00 0.00 0.00 0.00 0.00 0.00 0.00 0.00 0.00 0.00 0.00 0.00 0.00 0.00 0.00 0.00 0.00 0.00 0.00 0.00 0.00 0.00 0.00 0.00 0.00 0.00 0.00 0.00 0.00 0.00 0.00
0.01 0.01 0.01 0.00 0.00 0.00 0.00 0.00 0.00 0.00 0.00 0.00 0.00 0.00 0.00 0.00 0.00 0.00 0.00 0.00 0.00 0.00 0.00 0.00 0.00 0.00 0.00 0.00 0.00 0.00 0.00 0.00 0.00 0.00 0.00 0.00 0.00 0.00 0.00 0.00 0.00 0.00 0.00
0.01 0.01 0.01 0.01 0.01 0.00 0.00 0.01 0.00 0.00 0.00 0.00 0.00 0.00 0.00 0.00 0.00 0.00 0.00 0.00 0.00 0.00 0.00 0.00 0.00 0.00 0.00 0.00 0.00 0.00 0.00 0.00 0.00 0.00 0.00 0.00 0.00 0.00 0.00 0.00 0.00 0.00 0.00
0.01 0.01 0.01 0.01 0.01 0.01 0.01 0.01 0.01 0.01 0.01 0.01 0.01 0.01 0.01 0.01 0.01 0.01 0.01 0.01 0.01 0.00 0.00 0.00 0.00 0.00 0.00 0.00 0.00 0.00 0.00 0.00 0.00 0.00 0.00 0.00 0.00 0.00 0.00 0.00 0.00 0.00 0.00
0.02 0.02 0.02 0.01 0.01 0.01 0.01 0.01 0.01 0.01 0.01 0.01 0.01 0.01 0.01 0.01 0.01 0.01 0.01 0.01 0.01 0.00 0.00 0.00 0.00 0.00 0.00 0.00 0.00 0.00 0.00 0.00 0.00 0.00 0.00 0.00 0.00 0.00 0.00 0.00 0.00 0.00 0.00
0.03 0.02 0.02 0.02 0.02 0.01 0.01 0.01 0.02 0.02 0.02 0.01 0.01 0.00 0.00 0.01 0.01 0.01 0.01 0.01 0.01 0.00 0.00 0.00 0.00 0.00 0.00 0.00 0.00 0.00 0.00 0.00 0.00 0.00 0.00 0.00 0.00 0.00 0.00 0.00 0.00 0.00 0.00
0.02 0.03 0.03 0.02 0.02 0.01 0.01 0.01 0.01 0.01 0.01 0.01 0.01 0.01 0.01 0.01 0.01 0.01 0.01 0.01 0.01 0.01 0.00 0.00 0.00 0.00 0.00 0.00 0.00 0.00 0.00 0.00 0.00 0.00 0.00 0.00 0.00 0.00 0.00 0.00 0.00 0.00 0.00
0.02 0.02 0.02 0.02 0.02 0.01 0.01 0.01 0.01 0.01 0.01 0.01 0.01 0.01 0.01 0.00 0.00 0.01 0.00 0.00 0.01 0.01 0.01 0.00 0.00 0.00 0.00 0.00 0.00 0.00 0.00 0.00 0.00 0.00 0.00 0.00 0.00 0.00 0.00 0.00 0.00 0.00 0.01
0.02 0.02 0.02 0.02 0.02 0.02 0.02 0.02 0.02 0.02 0.03 0.02 0.02 0.01 0.01 0.00 0.00 0.00 0.00 0.01 0.01 0.01 0.01 0.00 0.01 0.01 0.00 0.00 0.00 0.00 0.00 0.00 0.00 0.00 0.00 0.00 0.00 0.00 0.00 0.00 0.00 0.01 0.01
0.02 0.02 0.04 0.05 0.04 0.04 0.03 0.03 0.03 0.03 0.03 0.02 0.02 0.01 0.01 0.00 0.00 0.01 0.01 0.01 0.01 0.01 0.01 0.01 0.01 0.01 0.00 0.00 0.00 0.00 0.00 0.00 0.00 0.00 0.00 0.00 0.00 0.00 0.00 0.00 0.00 0.00 0.00
0.02 0.03 0.03 0.03 0.04 0.04 0.04 0.03 0.03 0.02 0.01 0.01 0.01 0.01 0.01 0.01 0.01 0.01 0.01 0.01 0.01 0.01 0.01 0.01 0.01 0.01 0.01 0.01 0.01 0.01 0.01 0.01 0.01 0.01 0.00 0.00 0.00 0.00 0.00 0.00 0.00 0.00 0.00
0.01 0.01 0.01 0.02 0.02 0.02 0.02 0.01 0.01 0.01 0.01 0.00 0.00 0.00 0.01 0.01 0.00 0.01 0.01 0.01 0.01 0.01 0.01 0.01 0.01 0.01 0.01 0.01 0.01 0.01 0.01 0.01 0.01 0.01 0.01 0.00 0.01 0.01 0.00 0.00 0.00 0.01 0.01
0.00 0.00 0.00 0.00 0.00 0.00 0.00 0.00 0.00 0.00 0.00 0.00 0.00 0.00 0.01 0.01 0.01 0.01 0.01 0.01 0.01 0.02 0.02 0.02 0.02 0.02 0.01 0.01 0.02 0.02 0.01 0.01 0.01 0.01 0.01 0.01 0.01 0.01 0.01 0.01 0.01 0.01 0.01
0.00 0.00 0.00 0.00 0.00 0.00 0.00 0.00 0.00 0.00 0.00 0.00 0.00 0.01 0.01 0.01 0.01 0.02 0.02 0.02 0.02 0.03 0.03 0.03 0.03 0.03 0.02 0.02 0.02 0.02 0.02 0.01 0.01 0.01 0.01 0.01 0.01 0.01 0.01 0.01 0.01 0.01 0.02
0.00 0.00 0.00 0.00 0.00 0.00 0.00 0.00 0.00 0.00 0.00 0.01 0.01 0.02 0.02 0.03 0.03 0.03 0.03 0.04 0.04 0.04 0.03 0.03 0.03 0.03 0.03 0.03 0.02 0.02 0.02 0.02 0.01 0.01 0.01 0.01 0.01 0.02 0.02 0.02 0.02 0.03 0.03
0.00 0.00 0.00 0.00 0.00 0.00 0.00 0.00 0.00 0.01 0.01 0.02 0.02 0.03 0.04 0.05 0.05 0.05 0.06 0.06 0.06 0.05 0.05 0.04 0.04 0.04 0.04 0.03 0.03 0.02 0.02 0.02 0.01 0.01 0.01 0.01 0.01 0.02 0.02 0.02 0.02 0.03 0.05
0.00 0.00 0.00 0.00 0.00 0.00 0.00 0.00 0.01 0.01 0.02 0.02 0.03 0.04 0.05 0.06 0.06 0.07 0.08 0.08 0.05 0.05 0.05 0.05 0.04 0.04 0.04 0.03 0.02 0.02 0.01 0.01 0.01 0.01 0.01 0.01 0.01 0.02 0.02 0.03 0.03 0.04 0.06
0.00 0.00 0.00 0.00 0.00 0.00 0.00 0.01 0.01 0.02 0.03 0.03 0.04 0.05 0.06 0.08 0.10 0.08 0.07 0.07 0.06 0.05 0.04 0.04 0.04 0.03 0.03 0.02 0.02 0.01 0.01 0.01 0.01 0.01 0.01 0.01 0.01 0.02 0.02 0.03 0.04 0.05 0.05
0.00 0.00 0.00 0.00 0.00 0.00 0.01 0.01 0.02 0.03 0.04 0.06 0.07 0.09 0.11 0.11 0.09 0.08 0.07 0.06 0.06 0.05 0.04 0.04 0.04 0.03 0.03 0.02 0.01 0.01 0.01 0.01 0.01 0.01 0.01 0.01 0.01 0.01 0.02 0.02 0.02 0.03 0.04
MSLP
1015.10 1015.67 1016.26 1016.84 1017.35 1017.78 1018.12 1018.37 1018.55 1018.69 1018.80 1018.90 1019.00 1019.09 1019.17 1019.24 1019.30 1019.35 1019.40 1019.46 1019.53 1019.62 1019.72 1019.81 1019.89 1019.92 1019.91 1019.84 1019.72 1019.54 1019.32 1019.08 1018.82 1018.56 1018.30 1018.04 1017.77 1017.50 1017.23 1016.97 1016.72 1016.50 1016.32
1014.66 1015.25 1015.86 1016.45 1016.97 1017.41 1017.76 1018.02 1018.22 1018.36 1018.47 1018.56 1018.64 1018.72 1018.78 1018.84 1018.88 1018.93 1018.97 1019.03 1019.10 1019.19 1019.28 1019.36 1019.42 1019.45 1019.44 1019.37 1019.25 1019.09 1018.90 1018.68 1018.45 1018.22 1017.98 1017.74 1017.50 1017.25 1017.00 1016.75 1016.52 1016.31 1016.14
1014.24 1014.85 1015.48 1016.07 1016.59 1017.03 1017.38 1017.64 1017.83 1017.98 1018.08 1018.17 1018.25 1018.32 1018.38 1018.43 1018.48 1018.52 1018.57 1018.63 1018.69 1018.77 1018.85 1018.92 1018.97 1018.99 1018.97 1018.90 1018.79 1018.64 1018.46 1018.27 1018.06 1017.85 1017.63 1017.41 1017.19 1016.96 1016.72 1016.49 1016.28 1016.08 1015.91
1013.81 1014.46 1015.10 1015.69 1016.20 1016.62 1016.96 1017.21 1017.40 1017.54 1017.66 1017.75 1017.83 1017.91 1017.98 1018.04 1018.09 1018.14 1018.19 1018.24 1018.30 1018.37 1018.43 1018.48 1018.52 1018.53 1018.50 1018.43 1018.32 1018.18 1018.01 1017.83 1017.64 1017.45 1017.25 1017.04 1016.83 1016.62 1016.40 1016.19 1015.98 1015.79 1015.63
1013.37 1014.05 1014.69 1015.27 1015.77 1016.17 1016.48 1016.73 1016.92 1017.07 1017.19 1017.31 1017.41 1017.51 1017.59 1017.66 1017.72 1017.77 1017.82 1017.86 1017.91 1017.95 1018.00 1018.03 1018.05 1018.04 1018.01 1017.93 1017.82 1017.69 1017.53 1017.36 1017.18 1017.00 1016.81 1016.61 1016.42 1016.22 1016.02 1015.82 1015.63 1015.45 1015.28
1012.90 1013.59 1014.23 1014.79 1015.26 1015.65 1015.95 1016.19 1016.38 1016.55 1016.71 1016.85 1016.98 1017.10 1017.20 1017.28 1017.34 1017.38 1017.41 1017.44 1017.46 1017.49 1017.51 1017.53 1017.53 1017.51 1017.46 1017.39 1017.28 1017.15 1017.00 1016.83 1016.66 1016.48 1016.29 1016.11 1015.93 1015.74 1015.56 1015.38 1015.21 1015.04 1014.87
1012.39 1013.08 1013.70 1014.24 1014.69 1015.05 1015.35 1015.59 1015.81 1016.01 1016.19 1016.37 1016.53 1016.66 1016.78 1016.85 1016.90 1016.93 1016.94 1016.93 1016.93 1016.93 1016.93 1016.93 1016.92 1016.89 1016.85 1016.78 1016.68 1016.56 1016.41 1016.25 1016.07 1015.89 1015.71 1015.54 1015.37 1015.20 1015.03 1014.87 1014.72 1014.57 1014.42
1011.87 1012.53 1013.12 1013.62 1014.04 1014.39 1014.69 1014.96 1015.20 1015.43 1015.65 1015.85 1016.04 1016.18 1016.29 1016.36 1016.38 1016.37 1016.34 1016.30 1016.27 1016.24 1016.22 1016.21 1016.21 1016.19 1016.16 1016.10 1016.02 1015.91 1015.77 1015.61 1015.44 1015.26 1015.09 1014.91 1014.75 1014.59 1014.45 1014.31 1014.18 1014.06 1013.93
1011.37 1011.98 1012.51 1012.98 1013.37 1013.71 1014.02 1014.30 1014.57 1014.83 1015.08 1015.30 1015.49 1015.63 1015.72 1015.75 1015.74 1015.68 1015.61 1015.54 1015.47 1015.43 1015.40 1015.40 1015.41 1015.42 1015.41 1015.39 1015.33 1015.23 1015.11 1014.96 1014.79 1014.61 1014.44 1014.26 1014.10 1013.96 1013.83 1013.72 1013.61 1013.51 1013.41
1010.95 1011.48 1011.95 1012.36 1012.73 1013.06 1013.36 1013.66 1013.95 1014.23 1014.49 1014.71 1014.88 1014.99 1015.04 1015.03 1014.97 1014.87 1014.76 1014.65 1014.57 1014.52 1014.51 1014.53 1014.57 1014.61 1014.65 1014.66 1014.63 1014.57 1014.46 1014.32 1014.15 1013.97 1013.79 1013.62 1013.45 1013.31 1013.20 1013.10 1013.01 1012.94 1012.86
1010.66 1011.09 1011.48 1011.84 1012.17 1012.48 1012.78 1013.08 1013.37 1013.64 1013.88 1014.08 1014.21 1014.28 1014.27 1014.20 1014.09 1013.95 1013.81 1013.69 1013.60 1013.57 1013.58 1013.64 1013.73 1013.82 1013.90 1013.95 1013.96 1013.92 1013.83 1013.70 1013.53 1013.35 1013.16 1012.97 1012.81 1012.66 1012.55 1012.45 1012.38 1012.32 1012.26
1010.55 1010.88 1011.18 1011.47 1011.75 1012.03 1012.31 1012.58 1012.84 1013.08 1013.28 1013.43 1013.50 1013.50 1013.43 1013.31 1013.15 1012.97 1012.81 1012.69 1012.63 1012.62 1012.68 1012.78 1012.92 1013.06 1013.18 1013.27 1013.31 1013.29 1013.22 1013.09 1012.92 1012.73 1012.52 1012.33 1012.15 1012.00 1011.87 1011.78 1011.70 1011.65 1011.60
1010.65 1010.86 1011.08 1011.30 1011.52 1011.75 1011.98 1012.20 1012.41 1012.59 1012.72 1012.79 1012.78 1012.71 1012.57 1012.39 1012.19 1011.99 1011.83 1011.72 1011.69 1011.72 1011.82 1011.97 1012.15 1012.34 1012.50 1012.61 1012.67 1012.66 1012.59 1012.45 1012.28 1012.07 1011.86 1011.65 1011.45 1011.29 1011.15 1011.04 1010.96 1010.90 1010.85
1010.94 1011.05 1011.18 1011.32 1011.48 1011.64 1011.80 1011.96 1012.09 1012.18 1012.22 1012.19 1012.09 1011.93 1011.73 1011.50 1011.26 1011.06 1010.90 1010.82 1010.82 1010.89 1011.03 1011.22 1011.43 1011.63 1011.81 1011.93 1011.99 1011.97 1011.89 1011.75 1011.56 1011.34 1011.12 1010.89 1010.69 1010.51 1010.36 1010.24 1010.15 1010.07 1010.00
1011.38 1011.41 1011.46 1011.52 1011.61 1011.69 1011.78 1011.84 1011.88 1011.86 1011.79 1011.66 1011.46 1011.22 1010.95 1010.67 1010.42 1010.21 1010.07 1010.00 1010.03 1010.13 1010.29 1010.50 1010.71 1010.92 1011.08 1011.19 1011.23 1011.19 1011.09 1010.93 1010.74 1010.51 1010.28 1010.05 1009.84 1009.66 1009.50 1009.36 1009.25 1009.16 1009.07
1011.89 1011.85 1011.84 1011.84 1011.86 1011.87 1011.87 1011.84 1011.77 1011.65 1011.46 1011.22 1010.93 1010.61 1010.28 1009.96 1009.68 1009.46 1009.32 1009.27 1009.30 1009.41 1009.58 1009.77 1009.97 1010.15 1010.28 1010.35 1010.36 1010.29 1010.17 1010.00 1009.80 1009.57 1009.34 1009.12 1008.92 1008.74 1008.57 1008.43 1008.31 1008.20 1008.09
1012.37 1012.30 1012.24 1012.19 1012.15 1012.10 1012.02 1011.90 1011.74 1011.51 1011.23 1010.89 1010.51 1010.11 1009.71 1009.35 1009.04 1008.81 1008.66 1008.60 1008.62 1008.72 1008.85 1009.01 1009.17 1009.30 1009.39 1009.42 1009.39 1009.30 1009.16 1008.98 1008.78 1008.57 1008.36 1008.15 1007.96 1007.79 1007.63 1007.49 1007.35 1007.23 1007.10
1012.73 1012.63 1012.54 1012.47 1012.39 1012.30 1012.16 1011.98 1011.74 1011.43 1011.06 1010.64 1010.18 1009.71 1009.26 1008.85 1008.50 1008.23 1008.05 1007.96 1007.95 1008.00 1008.10 1008.21 1008.31 1008.39 1008.44 1008.43 1008.37 1008.26 1008.12 1007.95 1007.77 1007.58 1007.39 1007.21 1007.04 1006.88 1006.72 1006.58 1006.44 1006.30 1006.15
1012.86 1012.76 1012.68 1012.60 1012.52 1012.40 1012.24 1012.02 1011.72 1011.36 1010.93 1010.45 1009.93 1009.40 1008.89 1008.42 1008.02 1007.70 1007.47 1007.33 1007.26 1007.26 1007.29 1007.35 1007.41 1007.44 1007.45 1007.43 1007.36 1007.26 1007.14 1006.99 1006.84 1006.68 1006.52 1006.36 1006.21 1006.06 1005.90 1005.75 1005.59 1005.43 1005.27
1012.73 1012.66 1012.59 1012.54 1012.46 1012.35 1012.19 1011.96 1011.65 1011.26 1010.80 1010.27 1009.71 1009.13 1008.56 1008.04 1007.57 1007.19 1006.89 1006.68 1006.54 1006.47 1006.45 1006.46 1006.48 1006.50 1006.50 1006.48 1006.44 1006.37 1006.29 1006.19 1006.07 1005.95 1005.82 1005.68 1005.53 1005.38 1005.21 1005.03 1004.85 1004.66 1004.47
1012.35 1012.30 1012.27 1012.25 1012.21 1012.13 1012.00 1011.79 1011.49 1011.10 1010.63 1010.08 1009.49 1008.86 1008.25 1007.66 1007.13 1006.67 1006.29 1006.00 1005.79 1005.66 1005.59 1005.56 1005.57 1005.59 1005.62 1005.64 1005.65 1005.64 1005.62 1005.58 1005.52 1005.43 1005.32 1005.19 1005.03 1004.85 1004.65 1004.43 1004.21 1003.97 1003.74
1011.76 1011.75 1011.76 1011.77 1011.78 1011.75 1011.65 1011.48 1011.21 1010.85 1010.38 1009.84 1009.22 1008.57 1007.90 1007.26 1006.66 1006.12 1005.66 1005.29 1005.02 1004.84 1004.73 1004.69 1004.71 1004.76 1004.84 1004.93 1005.02 1005.09 1005.15 1005.17 1005.16 1005.11 1005.02 1004.88 1004.69 1004.47 1004.22 1003.94 1003.65 1003.35 1003.07
1011.09 1011.09 1011.13 1011.19 1011.23 1011.24 1011.19 1011.06 1010.84 1010.50 1010.06 1009.52 1008.90 1008.22 1007.52 1006.82 1006.15 1005.54 1005.02 1004.58 1004.25 1004.03 1003.91 1003.88 1003.92 1004.03 1004.18 1004.35 1004.53 1004.70 1004.83 1004.93 1004.97 1004.94 1004.85 1004.69 1004.46 1004.19 1003.86 1003.51 1003.14 1002.78 1002.44
1010.45 1010.46 1010.51 1010.58 1010.65 1010.69 1010.68 1010.58 1010.39 1010.09 1009.67 1009.14 1008.52 1007.83 1007.10 1006.36 1005.64 1004.98 1004.39 1003.90 1003.53 1003.29 1003.16 1003.14 1003.23 1003.40 1003.62 1003.88 1004.15 1004.40 1004.61 1004.77 1004.84 1004.84 1004.74 1004.55 1004.28 1003.93 1003.54 1003.11 1002.67 1002.23 1001.83
1009.97 1009.96 1010.00 1010.06 1010.13 1010.18 1010.17 1010.09 1009.92 1009.64 1009.24 1008.73 1008.12 1007.42 1006.67 1005.91 1005.16 1004.45 1003.83 1003.31 1002.91 1002.65 1002.52 1002.53 1002.65 1002.87 1003.15 1003.49 1003.83 1004.14 1004.41 1004.61 1004.71 1004.71 1004.60 1004.38 1004.06 1003.67 1003.21 1002.72 1002.21 1001.71 1001.25
1009.73 1009.69 1009.69 1009.71 1009.75 1009.77 1009.75 1009.66 1009.48 1009.21 1008.82 1008.32 1007.72 1007.03 1006.28 1005.51 1004.75 1004.03 1003.39 1002.85 1002.44 1002.17 1002.04 1002.06 1002.20 1002.45 1002.77 1003.15 1003.53 1003.88 1004.18 1004.40 1004.51 1004.50 1004.38 1004.13 1003.78 1003.34 1002.85 1002.31 1001.76 1001.22 1000.72
Thickness
5720 5716 5713 5709 5706 5702 5699 5697 5694 5691 5688 5685 5682 5678 5675 5672 5669 5665 5661 5658 5654 5651 5648 5645 5642 5639 5636 5633 5630 5628 5625 5622 5622 5625 5624 5626 5627 5629 5632 5634 5637 5640 5643
5721 5716 5712 5708 5704 5700 5697 5695 5691 5688 5686 5683 5679 5675 5672 5669 5666 5662 5658 5655 5651 5648 5645 5641 5639 5636 5632 5629 5626 5623 5621 5618 5617 5618 5618 5618 5619 5621 5622 5624 5627 5630 5633
5720 5715 5710 5706 5702 5699 5696 5693 5689 5686 5683 5680 5676 5673 5670 5667 5663 5659 5656 5652 5649 5646 5642 5639 5636 5632 5628 5625 5621 5618 5616 5614 5612 5611 5612 5611 5611 5611 5613 5615 5617 5620 5623
5718 5714 5709 5706 5702 5698 5695 5691 5688 5684 5680 5677 5674 5671 5668 5664 5660 5657 5653 5649 5646 5643 5639 5636 5632 5629 5625 5621 5618 5614 5611 5608 5606 5604 5604 5604 5603 5603 5603 5605 5608 5610 5613
5717 5712 5709 5706 5701 5696 5692 5689 5685 5681 5678 5675 5671 5668 5664 5661 5657 5654 5650 5646 5642 5639 5636 5633 5629 5626 5622 5618 5614 5611 5607 5603 5600 5598 5598 5597 5597 5595 5596 5597 5598 5601 5604
5715 5711 5708 5702 5697 5693 5690 5686 5682 5678 5675 5671 5668 5665 5661 5659 5656 5651 5647 5642 5639 5635 5632 5629 5626 5622 5619 5615 5612 5608 5604 5599 5596 5593 5592 5591 5591 5590 5589 5589 5589 5591 5594
5712 5708 5703 5699 5694 5690 5686 5682 5678 5674 5671 5667 5664 5661 5658 5655 5652 5647 5643 5639 5635 5632 5628 5625 5622 5619 5615 5611 5607 5603 5600 5596 5593 5590 5588 5587 5586 5585 5583 5582 5582 5583 5586
5708 5703 5699 5694 5690 5686 5681 5678 5674 5670 5666 5663 5660 5657 5654 5652 5648 5643 5639 5635 5631 5628 5625 5621 5618 5614 5610 5606 5601 5598 5595 5592 5589 5586 5585 5584 5581 5579 5577 5576 5576 5576 5577
5703 5699 5695 5691 5686 5681 5677 5674 5670 5666 5662 5659 5656 5653 5650 5648 5644 5640 5635 5631 5628 5625 5622 5618 5614 5610 5607 5601 5595 5592 5590 5588 5585 5582 5580 5578 5576 5573 5571 5568 5568 5567 5572
5699 5696 5691 5687 5682 5677 5674 5670 5666 5661 5658 5655 5652 5649 5646 5644 5641 5636 5631 5626 5623 5622 5619 5615 5611 5607 5603 5596 5590 5587 5585 5584 5580 5577 5574 5572 5570 5568 5566 5564 5563 5563 5565
5694 5689 5684 5680 5676 5673 5668 5664 5659 5655 5651 5648 5646 5644 5641 5639 5636 5632 5627 5622 5619 5617 5614 5612 5608 5603 5597 5592 5586 5583 5581 5578 5574 5570 5568 5566 5564 5562 5561 5560 5559 5558 5559
5685 5681 5676 5673 5669 5666 5660 5656 5652 5647 5644 5641 5638 5637 5635 5633 5630 5628 5623 5618 5614 5611 5610 5608 5605 5599 5593 5587 5582 5579 5575 5570 5567 5564 5561 5561 5560 5559 5558 5557 5555 5554 5555
5676 5671 5667 5664 5660 5656 5652 5648 5643 5639 5635 5633 5630 5629 5629 5628 5625 5621 5618 5614 5609 5605 5605 5603 5598 5592 5586 5582 5578 5573 5569 5564 5561 5559 5558 5559 5557 5556 5553 5551 5551 5549 5550
5664 5660 5657 5653 5649 5646 5642 5638 5634 5630 5626 5624 5622 5621 5621 5619 5617 5615 5611 5608 5604 5600 5597 5595 5590 5584 5579 5576 5572 5568 5565 5561 5558 5557 5556 5555 5552 5549 5548 5546 5546 5545 5545
5651 5647 5644 5641 5638 5634 5631 5628 5625 5622 5618 5615 5614 5611 5609 5610 5610 5606 5602 5600 5597 5594 5589 5584 5580 5577 5574 5571 5568 5564 5560 5556 5553 5552 5550 5549 5547 5545 5544 5543 5541 5540 5541
5637 5634 5631 5628 5625 5622 5620 5617 5615 5612 5609 5605 5602 5599 5599 5598 5597 5595 5591 5589 5585 5581 5576 5576 5575 5572 5569 5567 5564 5561 5557 5553 5551 5548 5546 5544 5543 5542 5541 5539 5537 5537 5538
5623 5620 5617 5614 5612 5609 5606 5604 5603 5603 5599 5596 5592 5589 5586 5586 5584 5583 5581 5578 5575 5570 5567 5570 5568 5567 5564 5562 5558 5555 5553 5551 5547 5544 5542 5541 5539 5538 5536 5536 5535 5534 5535
5609 5607 5604 5600 5597 5594 5592 5589 5587 5586 5585 5586 5583 5580 5577 5575 5573 5572 5570 5566 5565 5562 5561 5562 5561 5560 5558 5555 5552 5550 5548 5545 5542 5540 5538 5537 5535 5534 5533 5533 5532 5532 5533
5595 5592 5589 5586 5583 5580 5577 5575 5572 5570 5569 5569 5569 5569 5566 5564 5563 5561 5557 5555 5558 5557 5554 5553 5552 5551 5550 5548 5546 5544 5542 5540 5538 5536 5534 5532 5531 5530 5530 5529 5529 5528 5527
5580 5579 5576 5572 5568 5565 5562 5560 5557 5555 5553 5552 5552 5552 5551 5549 5550 5549 5546 5544 5545 5546 5546 5545 5544 5543 5542 5541 5539 5538 5536 5535 5534 5532 5531 5529 5527 5526 5526 5526 5526 5526 5526
5566 5563 5560 5556 5552 5549 5546 5543 5541 5539 5537 5537 5536 5535 5531 5531 5534 5535 5535 5535 5535 5536 5536 5536 5536 5536 5535 5534 5533 5533 5532 5531 5530 5528 5527 5525 5523 5522 5522 5522 5522 5522 5522
5551 5547 5544 5540 5537 5533 5530 5527 5524 5522 5521 5520 5521 5521 5518 5518 5520 5521 5523 5525 5527 5528 5528 5528 5529 5530 5530 5529 5529 5528 5528 5527 5526 5524 5522 5520 5519 5518 5518 5518 5518 5518 5519
5536 5532 5529 5525 5522 5518 5515 5512 5509 5507 5506 5505 5505 5506 5507 5507 5509 5510 5513 5515 5517 5519 5520 5521 5523 5524 5524 5524 5524 5523 5523 5523 5521 5519 5516 5515 5514 5514 5514 5514 5515 5515 5516
5521 5517 5514 5511 5507 5504 5500 5498 5495 5494 5493 5493 5493 5493 5494 5496 5498 5501 5503 5505 5508 5510 5512 5514 5516 5518 5518 5518 5518 5517 5517 5516 5514 5513 5511 5510 5509 5509 5509 5509 5511 5513 5514
5506 5502 5499 5495 5492 5489 5486 5484 5482 5481 5480 5480 5480 5482 5483 5485 5488 5491 5494 5496 5499 5502 5504 5507 5509 5510 5511 5512 5512 5511 5510 5508 5507 5505 5505 5504 5505 5505 5505 5506 5507 5509 5511
5491 5487 5484 5480 5477 5474 5472 5470 5469 5468 5468 5468 5469 5471 5473 5476 5480 5483 5486 5489 5492 5494 5497 5499 5501 5503 5505 5506 5506 5505 5504 5503 5501 5499 5499 5500 5501 5502 5503 5504 5505 5506 5508